Location: Unspecified
(0.0000°N, 0.0000°E)
Time: 10:45:48
(UTC+00:00)

Explorer 11/Cluster Stage 4 - Pass Details

Date: 03 October 2020
Orbit: 467 x 1258 km, 28.8° (Epoch: 28 October)

Event Time Altitude Azimuth Distance (km) Brightness Sun altitude
Rises 03:47:17 0° 329° (NNW) 3,687 - -30.3°
Reaches altitude 10° 03:50:57 10° 349° (N) 2,887 - -29.4°
Exits shadow 03:51:31 12° 353° (N) 2,794 9.3 -29.3°
Maximum altitude 03:55:25 17° 28° (NNE) 2,541 9.4 -28.3°
Drops below altitude 10° 04:00:13 10° 65° (ENE) 3,152 10.4 -27.1°
Sets 04:04:27 0° 83° (E) 4,179 11.6 -26.1°
